Cavalier, ND

5:59 AM CDT on June 24, 2017 (GMT -0500)
Cavalier

Weather History for K2C8 - October, 2013

Change the Weather History Date:

Monday, October 28, 2013

  Actual Average (KGAF) Record (KGAF)
Temperature  
Mean Temperature 24 °F -  
Max Temperature 30 °F 50 °F 68 °F (1976)
Min Temperature 17 °F 28 °F 10 °F (1952)
Degree Days  
Heating Degree Days 42    
Moisture  
Dew Point 15 °F    
Average Humidity 72    
Maximum Humidity 93    
Minimum Humidity 47    
Precipitation  
Precipitation 0.00 in - - ()
Sea Level Pressure  
Sea Level Pressure 30.55 in    
Wind  
Wind Speed 8 mph (North)    
Max Wind Speed 13 mph    
Max Gust Speed 17 mph    
Visibility 10 miles    
Events      
Averages and records for this station are not official NWS values.
T = Trace of Precipitation, MM = Missing Value Source: NWS Daily Summary

Daily Weather History Graph

Daily Weather History Graph

Search for Another Location

Airport or City:

Trip Planner

Search our weather history database for the weather conditions in past years. The results will help you decide how hot, cold, wet, or windy it might be!

Date:

Astronomy

Oct. 28, 2013 Rise Set
Actual Time 8:11 AM CDT 6:16 PM CDT
Civil Twilight 7:38 AM CDT 6:49 PM CDT
Nautical Twilight 7:01 AM CDT 7:26 PM CDT
Astronomical Twilight 6:25 AM CDT 8:02 PM CDT
Moon 1:36 AM CDT (10/28) 3:25 PM CDT (10/28)
Length of Visible Light 11h 10m
Length of Day
10h 05m
Waning Crescent, 34% of the Moon is Illuminated
Oct 28
Waning Crescent
Nov 3
New
Nov 9
First Quarter
Nov 17
Full
Nov 25
Last Quarter

Hourly Weather History & Observations

Time (CDT) Temp. Windchill Dew Point Humidity Pressure Visibility Wind Dir Wind Speed Gust Speed Precip Events Conditions
12:15 AM 23.0 °F 13.1 °F 15.8 °F 74% 30.45 in 10.0 mi North 9.2 mph - N/A   Clear
12:35 AM 23.0 °F 12.4 °F 15.8 °F 74% 30.46 in 10.0 mi North 10.4 mph - N/A   Clear
12:55 AM 23.0 °F 13.1 °F 15.8 °F 74% 30.47 in 10.0 mi North 9.2 mph - N/A   Partly Cloudy
1:15 AM 23.0 °F 13.9 °F 15.8 °F 74% 30.47 in 10.0 mi North 8.1 mph - N/A   Mostly Cloudy
1:35 AM 23.0 °F 13.9 °F 15.8 °F 74% 30.48 in 10.0 mi North 8.1 mph - N/A   Overcast
1:55 AM 23.0 °F 12.4 °F 15.8 °F 74% 30.49 in 10.0 mi North 10.4 mph - N/A   Overcast
2:15 AM 23.0 °F 13.1 °F 15.8 °F 74% 30.49 in 10.0 mi NNE 9.2 mph 16.1 mph N/A   Overcast
2:35 AM 23.0 °F 12.4 °F 15.8 °F 74% 30.50 in 10.0 mi NNE 10.4 mph - N/A   Mostly Cloudy
2:55 AM 23.0 °F 12.4 °F 15.8 °F 74% 30.51 in 10.0 mi NNE 10.4 mph - N/A   Scattered Clouds
3:15 AM 23.0 °F 12.4 °F 15.8 °F 74% 30.51 in 10.0 mi North 10.4 mph - N/A   Clear
3:35 AM 19.4 °F 10.4 °F 15.8 °F 86% 30.52 in 10.0 mi North 6.9 mph - N/A   Clear
3:55 AM 19.4 °F 11.5 °F 15.8 °F 86% 30.52 in 10.0 mi North 5.8 mph - N/A   Clear
4:15 AM 19.4 °F 11.5 °F 14.0 °F 80% 30.54 in 10.0 mi NNW 5.8 mph - N/A   Clear
4:35 AM 17.6 °F 10.7 °F 14.0 °F 86% 30.55 in 10.0 mi NNW 4.6 mph - N/A   Clear
4:55 AM 17.6 °F 8.2 °F 14.0 °F 86% 30.55 in 10.0 mi NNW 6.9 mph - N/A   Clear
5:15 AM 17.6 °F 9.3 °F 15.8 °F 93% 30.56 in 10.0 mi North 5.8 mph - N/A   Clear
5:35 AM 19.4 °F 11.5 °F 15.8 °F 86% 30.56 in 10.0 mi North 5.8 mph - N/A   Clear
5:55 AM 19.4 °F 10.4 °F 15.8 °F 86% 30.56 in 10.0 mi North 6.9 mph - N/A   Clear
6:15 AM 19.4 °F 10.4 °F 15.8 °F 86% 30.57 in 10.0 mi North 6.9 mph - N/A   Partly Cloudy
6:35 AM 19.4 °F 10.4 °F 15.8 °F 86% 30.57 in 10.0 mi North 6.9 mph - N/A   Mostly Cloudy
6:55 AM 19.4 °F 10.4 °F 15.8 °F 86% 30.58 in 10.0 mi North 6.9 mph - N/A   Partly Cloudy
7:15 AM 19.4 °F 11.5 °F 15.8 °F 86% 30.58 in 10.0 mi North 5.8 mph - N/A   Clear
7:35 AM 19.4 °F 11.5 °F 15.8 °F 86% 30.57 in 10.0 mi North 5.8 mph - N/A   Clear
7:55 AM 19.4 °F 10.4 °F 15.8 °F 86% 30.58 in 10.0 mi North 6.9 mph - N/A   Clear
8:15 AM 19.4 °F 10.4 °F 15.8 °F 86% 30.58 in 10.0 mi North 6.9 mph - N/A   Clear
8:35 AM 19.4 °F 11.5 °F 15.8 °F 86% 30.59 in 10.0 mi North 5.8 mph - N/A   Clear
8:55 AM 19.4 °F 10.4 °F 15.8 °F 86% 30.59 in 10.0 mi North 6.9 mph - N/A   Clear
9:15 AM 21.2 °F 11.7 °F 15.8 °F 80% 30.60 in 10.0 mi North 8.1 mph - N/A   Clear
9:35 AM 23.0 °F 14.7 °F 15.8 °F 74% 30.61 in 10.0 mi North 6.9 mph - N/A   Clear
9:55 AM 24.8 °F 15.3 °F 17.6 °F 74% 30.61 in 10.0 mi North 9.2 mph - N/A   Clear
10:15 AM 24.8 °F 16.9 °F 15.8 °F 69% 30.62 in 10.0 mi North 6.9 mph - N/A   Clear
10:35 AM 24.8 °F 15.3 °F 17.6 °F 74% 30.62 in 10.0 mi North 9.2 mph - N/A   Clear
10:55 AM 24.8 °F 14.6 °F 17.6 °F 74% 30.62 in 10.0 mi North 10.4 mph 16.1 mph N/A   Partly Cloudy
11:15 AM 26.6 °F 18.2 °F 15.8 °F 64% 30.63 in 10.0 mi NNE 8.1 mph - N/A   Mostly Cloudy
11:35 AM 26.6 °F 19.1 °F 17.6 °F 69% 30.63 in 10.0 mi NNE 6.9 mph - N/A   Overcast
11:55 AM 26.6 °F 16.8 °F 15.8 °F 64% 30.63 in 10.0 mi North 10.4 mph - N/A   Overcast
12:15 PM 26.6 °F 20.0 °F 15.8 °F 64% 30.63 in 10.0 mi NE 5.8 mph - N/A   Mostly Cloudy
12:35 PM 28.4 °F 19.7 °F 15.8 °F 59% 30.63 in 10.0 mi NNE 9.2 mph - N/A   Mostly Cloudy
12:55 PM 26.6 °F 18.2 °F 15.8 °F 64% 30.62 in 10.0 mi North 8.1 mph - N/A   Mostly Cloudy
1:15 PM 28.4 °F 21.2 °F 15.8 °F 59% 30.61 in 10.0 mi NNE 6.9 mph - N/A   Scattered Clouds
1:35 PM 28.4 °F 18.0 °F 15.8 °F 59% 30.60 in 10.0 mi North 12.7 mph 17.3 mph N/A   Partly Cloudy
1:55 PM 30.2 °F 23.4 °F 15.8 °F 55% 30.60 in 10.0 mi North 6.9 mph - N/A   Partly Cloudy
2:15 PM 28.4 °F 20.4 °F 14.0 °F 55% 30.58 in 10.0 mi North 8.1 mph - N/A   Partly Cloudy
2:35 PM 28.4 °F 19.7 °F 15.8 °F 59% 30.58 in 10.0 mi NNE 9.2 mph - N/A   Partly Cloudy
2:55 PM 28.4 °F 21.2 °F 14.0 °F 55% 30.57 in 10.0 mi North 6.9 mph - N/A   Clear
3:15 PM 30.2 °F 23.4 °F 14.0 °F 51% 30.56 in 10.0 mi North 6.9 mph - N/A   Clear
3:35 PM 30.2 °F 21.9 °F 12.2 °F 47% 30.55 in 10.0 mi North 9.2 mph - N/A   Clear
3:55 PM 30.2 °F 20.8 °F 12.2 °F 47% 30.54 in 10.0 mi North 11.5 mph - N/A   Clear
4:15 PM 30.2 °F 22.6 °F 14.0 °F 51% 30.54 in 10.0 mi NNE 8.1 mph - N/A   Clear
4:35 PM 30.2 °F 21.9 °F 14.0 °F 51% 30.53 in 10.0 mi North 9.2 mph - N/A   Clear
4:55 PM 30.2 °F 23.4 °F 14.0 °F 51% 30.53 in 10.0 mi NNE 6.9 mph - N/A   Clear
5:15 PM 28.4 °F 21.2 °F 14.0 °F 55% 30.53 in 10.0 mi NNE 6.9 mph - N/A   Clear
5:35 PM 28.4 °F 21.2 °F 14.0 °F 55% 30.52 in 10.0 mi NNE 6.9 mph - N/A   Clear
5:55 PM 28.4 °F 21.2 °F 14.0 °F 55% 30.52 in 10.0 mi NNE 6.9 mph - N/A   Clear
6:15 PM 26.6 °F 19.1 °F 14.0 °F 59% 30.52 in 10.0 mi North 6.9 mph - N/A   Clear
6:35 PM 26.6 °F 20.0 °F 14.0 °F 59% 30.53 in 10.0 mi North 5.8 mph - N/A   Clear
6:55 PM 24.8 °F 17.9 °F 14.0 °F 64% 30.53 in 10.0 mi North 5.8 mph - N/A   Clear
7:15 PM 24.8 °F 19.1 °F 14.0 °F 64% 30.53 in 10.0 mi North 4.6 mph - N/A   Clear
7:35 PM 24.8 °F 19.1 °F 14.0 °F 64% 30.53 in 10.0 mi North 4.6 mph - N/A   Clear
7:55 PM 23.0 °F 17.0 °F 14.0 °F 68% 30.54 in 8.0 mi North 4.6 mph - N/A   Clear
8:15 PM 23.0 °F 18.4 °F 14.0 °F 68% 30.54 in 10.0 mi NNE 3.5 mph - N/A   Clear
8:35 PM 23.0 °F 17.0 °F 14.0 °F 68% 30.53 in 10.0 mi NNE 4.6 mph - N/A   Clear
8:55 PM 23.0 °F 17.0 °F 14.0 °F 68% 30.53 in 10.0 mi NNE 4.6 mph - N/A   Clear
9:15 PM 23.0 °F 17.0 °F 14.0 °F 68% 30.52 in 10.0 mi NNE 4.6 mph - N/A   Clear
9:35 PM 23.0 °F - 15.8 °F 74% 30.52 in 10.0 mi Calm Calm - N/A   Clear
9:55 PM 19.4 °F - 14.0 °F 80% 30.53 in 10.0 mi Calm Calm - N/A   Clear
10:15 PM 19.4 °F - 14.0 °F 80% 30.53 in 10.0 mi Calm Calm - N/A   Clear
10:35 PM 19.4 °F - 15.8 °F 86% 30.53 in 10.0 mi Calm Calm - N/A   Clear
10:55 PM 19.4 °F - 15.8 °F 86% 30.52 in 10.0 mi Calm Calm - N/A   Clear
11:15 PM 19.4 °F 14.3 °F 15.8 °F 86% 30.52 in 10.0 mi North 3.5 mph - N/A   Clear
11:35 PM 19.4 °F 12.8 °F 15.8 °F 86% 30.52 in 10.0 mi North 4.6 mph - N/A   Clear
11:55 PM 19.4 °F 14.3 °F 15.8 °F 86% 30.51 in 10.0 mi North 3.5 mph - N/A   Clear